Location: Chiroubles
(46.1812°N, 4.6660°E)
Time: 16:30:28
(UTC+00:00)

Transit 4A - Pass Details

Date: 08 December 2020
Orbit: 864 x 980 km, 66.8° (Epoch: 26 January)

Event Time Altitude Azimuth Distance (km) Brightness Sun altitude
Rises 07:28:14 0° 256° (WSW) 3,657 10.6 1.6°
Reaches altitude 10° 07:31:16 10° 269° (W) 2,723 9.9 2.0°
Maximum altitude 07:36:27 25° 324° (NW) 1,853 9.0 2.7°
Drops below altitude 10° 07:41:41 10° 19° (NNE) 2,740 10.2 3.4°
Sets 07:44:46 0° 32° (NNE) 3,684 10.9 3.8°
